Regional Weather Roundup
Issued by NWS

Home | Current Version | Previous Version | Graphics & Text | Print | Product List | Glossary Off
Versions: 1 2 3 4 5 6 7 8 9 10 11 12 13 14 15 16 17 18 19 20 21 22 23 24 25 26 27 28 29 30 31 32 33 34 35 36 37 38 39 40 41 42 43 44 45 46 47 48 49 50

000
ASUS43 KMPX 201801
RWRMN
WEATHER ROUNDUP FOR MINNESOTA
NATIONAL WEATHER SERVICE TWIN CITIES/CHANHASSEN MN
1200 PM CST SAT DEC 20 2014


NOTE: "FAIR" INDICATES FEW OR NO CLOUDS BELOW 12,000 FEET WITH NO
SIGNIFICANT WEATHER AND/OR OBSTRUCTIONS TO VISIBILITY. N/A MEANS
CURRENT SKY AND/OR WEATHER CONDITIONS ARE NOT AVAILABLE.

MNZ060>063-068>070-201900-
   Twin Cities Metro

CITY           SKY/WX    TMP DP  RH WIND       PRES   REMARKS
TWIN CITIES    CLOUDY    32  27  81 S8        30.15S HAZE    WCI  25
6HR MIN TEMP:  29; 6HR MAX TEMP:  32;

ST PAUL        CLOUDY    32  28  85 S8        30.16F WCI  25
CRYSTAL        CLOUDY    32  28  85 S7        30.13F FOG     WCI  26
BLAINE         CLOUDY    34  30  86 S9        30.14  FOG     WCI  26
LAKEVILLE      CLOUDY    30  28  93 S8        30.14F FOG     WCI  23
EDEN PRAIRIE   CLOUDY    32  27  81 S10       30.13F WCI  24
6HR MIN TEMP:  30; 6HR MAX TEMP:  32;

SOUTH ST PAUL  CLOUDY    32  28  86 S9        30.15F FOG     WCI  24
LAKE ELMO      CLOUDY    32  30  93 S6        30.16S FOG     WCI  26
$$
MNZ001>005-007-008-013>017-022>024-027-028-201900-
   Northwest Minnesota

CITY           SKY/WX    TMP DP  RH WIND       PRES   REMARKS
BEMIDJI        MIX PCPN  29  28  96 S8        30.01F WCI  21
HALLOCK        CLOUDY    28  27  93 CALM      29.98F FOG
ROSEAU         CLOUDY    30  27  86 S8        29.99F WCI  23
WARROAD        CLOUDY    28  27  93 S5        30.00F FOG     WCI  23
THIEF RVR FALL CLOUDY    28  28 100 S12       30.00F WCI  18
CROOKSTON      CLOUDY    28  28 100 SW15      30.01F FOG     WCI  17
FOSSTON        CLOUDY    28  27  93 S12G17    30.01S FOG     WCI  18
DETROIT LAKES  CLOUDY    30  30 100 S13       30.02F FOG     WCI  20
MOORHEAD       CLOUDY    32  32 100 S13       30.02F FOG     WCI  22
PARK RAPIDS    CLOUDY    29  27  92 S15       30.02F FOG     WCI  18
MAHNOMEN       CLOUDY    28  28  96 S12       30.01F FOG     WCI  18
$$
MNZ006-009>011-018-025>026-201900-
   North Central Minnesota

CITY           SKY/WX    TMP DP  RH WIND       PRES   REMARKS
BAUDETTE       CLOUDY    30  28  92 S6        30.00F FOG     WCI  24
FLAG ISLAND    CLOUDY    28  27  93 S10       29.98F FOG     WCI  19
INTL FALLS     CLOUDY    29  27  92 VRB3      30.03F FOG
6HR MIN TEMP:  26; 6HR MAX TEMP:  29; 6HR PCP:  0.01;

WASKISH        CLOUDY    30  30 100 CALM      30.02S FOG
BIG FORK       MIX PCPN  30  28  93 S6        30.03F VSB 1   WCI  24
LONGVILLE      CLOUDY    28  28 100 S8        30.03F FOG     WCI  20
GRAND RAPIDS   CLOUDY    28  27  93 S9        30.04F VSB 1   WCI  20
CRANE LAKE     LGT SNOW  28  27  93 CALM      30.08F
ORR            CLOUDY    28  25  86 S6        30.02F FOG     WCI  22
COOK           LGT SNOW  28  27  93 S7        30.05F WCI  21
WALKER         CLOUDY    28  28  96 S7        30.03S FOG     WCI  21
$$
MNZ012-019>021-037-201900-
   Northeast Minnesota

CITY           SKY/WX    TMP DP  RH WIND       PRES   REMARKS
DULUTH         CLOUDY    28  25  88 S10       30.08F FOG     WCI  19
6HR MIN TEMP:  26; 6HR MAX TEMP:  28; 6HR PCP:  0.01;

ELY            CLOUDY    28  27  93 S7        30.06F WCI  21
HIBBING        CLOUDY    30  26  85 S9        30.05F FOG     WCI  22
EVELETH        CLOUDY    30  28  93 S9        30.07F FOG     WCI  22
DULUTH HARBOR  CLOUDY    32  28  86 CALM      30.14F
SILVER BAY     CLOUDY    30  27  86 S7        30.10F FOG     WCI  23
GRAND MARAIS     N/A     33  29  85 S8        30.15F WCI  26
G MARAIS ARPRT LGT SNOW  27  23  86 SE3       30.10S
$$
MNZ029>031-032-039>041-046>048-054>057-064-201900-
   West Central Minnesota

CITY           SKY/WX    TMP DP  RH WIND       PRES   REMARKS
FERGUS FALLS   CLOUDY    30  28  93 S14       30.06F FOG     WCI  20
WHEATON        CLOUDY    28  27  93 S9        30.05F FOG     WCI  20
MORRIS         SUNNY     32  28  86 S10       30.04F FOG     WCI  24
ALEXANDRIA     CLOUDY    30  28  92 S13       30.05F FOG     WCI  20
ELBOW LAKE     CLOUDY    30  28  94 S13       30.03F FOG     WCI  20
WADENA         CLOUDY    28  27  93 S13       30.03F FOG     WCI  18
GLENWOOD       CLOUDY    30  28  93 S15       30.06F FOG     WCI  19
APPLETON       CLOUDY    34  28  80 S6        30.05F HAZE    WCI  29
BENSON         CLOUDY    32  28  86 SW13      30.06F FOG     WCI  22
ORTONVILLE     CLOUDY    32  27  80 S8        30.03F HAZE    WCI  25
MADISON        SUNNY     36  32  87 S7        30.04F FOG
WILLMAR        CLOUDY    32  28  86 S5        30.09F FOG     WCI  27
$$
MNZ033>034-036-042>043-049>051-058-059-201900-
   Central Minnesota

CITY           SKY/WX    TMP DP  RH WIND       PRES   REMARKS
ST CLOUD       CLOUDY    32  26  78 S15       30.10F WCI  22
6HR MIN TEMP:  32; 6HR MAX TEMP:  32;

SAUK CENTRE    CLOUDY    30  28  92 S13       30.07F FOG     WCI  20
PAYNESVILLE    CLOUDY    28  26  95 SE12      30.09S WCI  17
AITKIN         CLOUDY    34  28  80 S6        30.06S HAZE    WCI  29
PINE RIVER     CLOUDY    28  28 100 S8        30.08S FOG     WCI  20
BRAINERD       CLOUDY    30  27  88 S13       30.07S FOG     WCI  20
STAPLES        CLOUDY    28  27  93 S9G16     30.05F FOG     WCI  20
LONG PRAIRIE   CLOUDY    30  28  93 S10       30.06F FOG     WCI  21
LITTLE FALLS   CLOUDY    30  27  86 S9        30.09S WCI  22
LITCHFIELD     CLOUDY    30  30 100 S5        30.10F WCI  25
BUFFALO        CLOUDY    31  27  85 S9        30.13F WCI  23
MAPLE LAKE     CLOUDY    32  29  89 S9        30.12F WCI  24
$$
MNZ037-044-045-052-053-201900-
   East Central Minnesota

CITY           SKY/WX    TMP DP  RH WIND       PRES   REMARKS
PRINCETON      CLOUDY    32  28  86 S12G18    30.12S WCI  23
MORA           CLOUDY    32  28  86 S8        30.13F WCI  25
CAMBRIDGE      CLOUDY    34  25  69 S7        30.11S HAZE    WCI  28
RUSH CITY      CLOUDY    31  27  85 S8        30.13S WCI  23
MOOSE LAKE     CLOUDY    32  28  86 S5        30.08F FOG     WCI  27
HINCKLEY       CLOUDY    32  30  93 S5        30.12S FOG     WCI  27
CLOQUET        CLOUDY    28  27  93 S7        30.08F FOG     WCI  21
MCGREGOR       CLOUDY    30  30 100 S8        30.08S WCI  23
$$
MNZ071>073-080-081-089-090-097-098-201900-
   Southwest Minnesota

CITY           SKY/WX    TMP DP  RH WIND       PRES   REMARKS
MONTEVIDEO     CLOUDY    32  30  93 SW8       30.06F FOG     WCI  25
GRANITE FALLS  CLOUDY    32  30  90 S10       30.08F FOG     WCI  24
CANBY          CLOUDY    33  30  90 S7        30.05S FOG     WCI  27
MARSHALL       CLOUDY    32  27  80 SW15      30.06F WCI  22
REDWOOD FALLS  CLOUDY    32  28  85 SW13      30.09F WCI  22
OLIVIA         CLOUDY    32  30  93 S9        30.08F WCI  24
PIPESTONE      CLOUDY    30  30 100 SW5       30.03F FOG     WCI  25
WINDOM         CLOUDY    30  28  93 S9        30.09F WCI  22
WORTHINGTON    CLOUDY    30  28  93 S12       30.07F WCI  21
JACKSON        CLOUDY    32  28  86 SW10      30.10F WCI  24
TRACY          CLOUDY    32  30  91 S12       30.06F WCI  23
SLAYTON        CLOUDY    30  30  99 S5        30.06F FOG     WCI  25
$$
MNZ065>067-074>077-082>085-091>093-201900-
   South Central Minnesota

CITY           SKY/WX    TMP DP  RH WIND       PRES   REMARKS
MANKATO        CLOUDY    30  23  74 S10       30.13F WCI  21
NEW ULM        CLOUDY    30  28  93 SW8       30.12F WCI  23
ST JAMES       CLOUDY    32  28  86 S9        30.12F WCI  24
FAIRMONT       CLOUDY    30  25  80 S9        30.12F WCI  22
GLENCOE        CLOUDY    32  29  90 S10       30.12F WCI  23
FARIBAULT      CLOUDY    30  28  93 S8        30.15F FOG     WCI  23
OWATONNA       PTSUNNY   30  28  93 S6        30.15F FOG     WCI  24
WASECA         CLOUDY    32  30  93 S12       30.15F WCI  23
ALBERT LEA     CLOUDY    30  30 100 S6        30.14F FOG     WCI  24
$$
MNZ078>079-086>088-094>096-201900-
   Southeast Minnesota

CITY           SKY/WX    TMP DP  RH WIND       PRES   REMARKS
ROCHESTER      CLOUDY    30  28  92 S8        30.16R FOG     WCI  22
6HR MIN TEMP:  27; 6HR MAX TEMP:  30;

RED WING       CLOUDY    32  28  86 CALM      30.16F FOG
STANTON        CLOUDY    32  29  89 S6        30.15S FOG     WCI  26
DODGE CENTER   CLOUDY    30  30 100 S9        30.14S FOG     WCI  22
WINONA         CLOUDY    34  28  80 S3        30.19F
AUSTIN         CLOUDY    30  28  93 S8        30.15S FOG     WCI  23
PRESTON        FOG       28  28  98 S10       30.16S VSB 3/4 WCI  19
$$
ABBREVIATIONS USED IN REMARKS
   TC - TEMPERATURES IN CELSIUS
  WCI - WIND CHILL INDEX
   HX - HEAT INDEX
  VSB - VISIBILITY
$$



USA.gov is the U.S. government's official web portal to all federal, state and local government web resources and services.